Location: Newark
(34.3481°N, 134.0494°E)
Time: 05:18:03
(UTC+00:00)

Vanguard 1 - Visible Passes

Search period start: 24 January 2020 00:00
Search period end: 03 February 2020 00:00
Orbit: 651 x 3832 km, 34.2° (Epoch: 23 January)

Date Brightness Start Highest point End Pass type
(mag) Time Alt. Az. Time Alt. Az. Time Alt. Az.
24 Jan 9.8 10:40:10 10° W 10:45:09 85° S 10:45:19 83° SSE visible
25 Jan 10.2 11:01:03 10° W 11:05:12 62° WSW 11:05:12 62° WSW visible
26 Jan 9.4 09:02:28 10° W 09:06:53 90° E 09:12:23 11° E visible
26 Jan 11.0 11:21:57 10° W 11:25:06 40° WSW 11:25:06 40° WSW visible
27 Jan 9.4 09:23:25 10° W 09:27:51 89° S 09:32:19 17° E visible
27 Jan 11.7 11:42:54 10° W 11:45:02 26° W 11:45:02 26° W visible
28 Jan 9.5 09:44:21 10° W 09:48:50 81° S 09:52:16 25° ESE visible
28 Jan 12.3 12:03:58 10° W 12:05:00 16° W 12:05:00 16° W visible
29 Jan 9.7 10:05:16 10° W 10:09:47 69° SSW 10:12:16 34° ESE visible
30 Jan 10.1 10:26:13 10° W 10:30:44 54° SSW 10:32:18 41° SSE visible
31 Jan 10.6 10:47:13 10° W 10:51:41 40° SSW 10:52:23 39° S visible
01 Feb 9.4 08:48:14 10° W 08:52:40 77° S 08:57:41 10° ESE visible
01 Feb 11.1 11:08:23 10° W 11:12:31 29° SSW 11:12:31 29° SSW visible
02 Feb 9.7 09:09:14 10° W 09:13:35 62° SSW 09:18:41 10° ESE visible
02 Feb 11.8 11:29:52 10° WSW 11:32:42 20° SW 11:32:42 20° SW visible
